EZY18PK GMMX-EGKK

Flight info

Callsign EZY18PK
Flight time 2h 53m
Altitude 36000
Route MABAP UR722 SAK UG5 KORIS L27 VJF DCT SVL N10 HIJ Z230 TLD DCT SIE DCT EDIGO DCT DGO DCT BLV N867 NENEM DCT DIDIG UP87 REVTU/N0425F340 UP88 VASUX
Aircraft A21N/M-SDE2E3FGHIRWXY/LB1

Departure

Time 2026-05-06 18:41
Airport Marrakesh Menara Airport (GMMX)

Arrival

Time 2026-05-06 21:35
Airport London Gatwick Airport (EGKK)
Time Latitude Longitude Altitude Speed Heading
2026-05-06 17:33 31.60032 -8.02313 1555 ft 0 kts 272°
2026-05-06 18:31 31.60032 -8.02302 1555 ft 4 kts 273°
2026-05-06 18:31 31.60029 -8.02270 1555 ft 4 kts 281°
2026-05-06 18:31 31.60021 -8.02243 1555 ft 4 kts 315°
2026-05-06 18:32 31.60008 -8.02236 1555 ft 0 kts
2026-05-06 18:36 31.60014 -8.02235 1555 ft 1 kts
2026-05-06 18:36 31.60034 -8.02232 1555 ft 5 kts
2026-05-06 18:37 31.60081 -8.02226 1555 ft 9 kts
2026-05-06 18:37 31.60156 -8.02216 1555 ft 12 kts
2026-05-06 18:37 31.60248 -8.02207 1555 ft 14 kts
2026-05-06 18:37 31.60332 -8.02197 1555 ft 10 kts
2026-05-06 18:38 31.60386 -8.02164 1554 ft 10 kts 76°
2026-05-06 18:38 31.60380 -8.02079 1555 ft 11 kts 97°
2026-05-06 18:38 31.60371 -8.01979 1555 ft 13 kts 95°
2026-05-06 18:38 31.60362 -8.01879 1555 ft 6 kts 97°
2026-05-06 18:39 31.60338 -8.01862 1555 ft 6 kts 219°
2026-05-06 18:39 31.60356 -8.01909 1555 ft 8 kts 313°
2026-05-06 18:39 31.60372 -8.01977 1555 ft 10 kts 275°
2026-05-06 18:40 31.60471 -8.02030 1555 ft 11 kts 10°
2026-05-06 18:40 31.60524 -8.02022 1555 ft 8 kts
2026-05-06 18:40 31.60553 -8.02061 1555 ft 8 kts 278°
2026-05-06 18:40 31.60565 -8.02213 1555 ft 47 kts 275°
2026-05-06 18:41 31.60626 -8.02914 1552 ft 120 kts 276°
2026-05-06 18:41 31.60728 -8.04076 1542 ft 168 kts 276°
2026-05-06 18:41 31.60837 -8.05429 2154 ft 166 kts 278°
2026-05-06 18:41 31.60961 -8.06834 2721 ft 179 kts 277°
2026-05-06 18:42 31.61098 -8.08341 3233 ft 197 kts 279°
2026-05-06 18:42 31.61244 -8.10005 3849 ft 213 kts 277°
2026-05-06 18:42 31.61405 -8.11820 4390 ft 234 kts 277°
2026-05-06 18:42 31.61576 -8.13751 5177 ft 240 kts 278°
2026-05-06 18:43 31.61749 -8.15719 6028 ft 245 kts 277°
2026-05-06 18:43 31.62225 -8.17648 6783 ft 251 kts 300°
2026-05-06 18:43 31.63402 -8.19166 7540 ft 258 kts 324°
2026-05-06 18:43 31.65093 -8.19932 8308 ft 267 kts 352°
2026-05-06 18:44 31.66988 -8.19956 8929 ft 281 kts 359°
2026-05-06 18:44 31.69002 -8.19956 9478 ft 296 kts 358°
2026-05-06 18:44 31.71090 -8.19959 10147 ft 306 kts 358°
2026-05-06 18:44 31.73287 -8.19952 10553 ft 325 kts 358°
2026-05-06 18:45 31.75590 -8.19946 11175 ft 334 kts 358°
2026-05-06 18:45 31.77929 -8.19932 11950 ft 338 kts 358°
2026-05-06 18:45 31.80297 -8.19918 12761 ft 342 kts 357°
2026-05-06 18:45 31.82691 -8.19904 13586 ft 346 kts 356°
2026-05-06 18:46 31.85109 -8.19891 14299 ft 349 kts 356°
2026-05-06 18:46 31.87551 -8.19876 15011 ft 353 kts 356°
2026-05-06 18:46 31.90019 -8.19862 15745 ft 356 kts 356°
2026-05-06 18:46 31.92504 -8.19847 16469 ft 359 kts 356°
2026-05-06 18:47 31.95012 -8.19833 17184 ft 362 kts 356°
2026-05-06 18:47 31.97541 -8.19818 17899 ft 365 kts 356°
2026-05-06 18:47 32.00095 -8.19803 18540 ft 368 kts 355°
2026-05-06 18:47 32.02673 -8.19788 19124 ft 372 kts 355°
2026-05-06 18:48 32.05273 -8.19773 19699 ft 376 kts 355°
2026-05-06 18:48 32.07898 -8.19758 20264 ft 379 kts 355°
2026-05-06 18:48 32.10550 -8.19742 20823 ft 383 kts 354°
2026-05-06 18:48 32.13240 -8.19610 21355 ft 392 kts
2026-05-06 18:49 32.15963 -8.19195 21897 ft 397 kts
2026-05-06 18:49 32.18710 -8.18742 22429 ft 401 kts
2026-05-06 18:49 32.21487 -8.18281 22970 ft 405 kts
2026-05-06 18:49 32.24287 -8.17820 23496 ft 408 kts
2026-05-06 18:50 32.27113 -8.17358 23924 ft 412 kts
2026-05-06 18:50 32.29967 -8.16893 24328 ft 416 kts
2026-05-06 18:50 32.32851 -8.16426 24729 ft 421 kts
2026-05-06 18:50 32.35767 -8.15952 25158 ft 425 kts
2026-05-06 18:51 32.38664 -8.15481 25588 ft 427 kts
2026-05-06 18:51 32.41658 -8.14995 26017 ft 430 kts
2026-05-06 18:51 32.44592 -8.14519 26423 ft 433 kts
2026-05-06 18:51 32.47594 -8.14031 26822 ft 437 kts
2026-05-06 18:52 32.50611 -8.13540 27223 ft 439 kts
2026-05-06 18:52 32.53648 -8.13041 27599 ft 442 kts
2026-05-06 18:52 32.56705 -8.12540 27933 ft 445 kts
2026-05-06 18:52 32.59787 -8.12036 28276 ft 449 kts
2026-05-06 18:53 32.62892 -8.11527 28657 ft 452 kts
2026-05-06 18:53 32.66001 -8.11017 29108 ft 452 kts
2026-05-06 18:53 32.69119 -8.10504 29514 ft 453 kts
2026-05-06 18:53 32.72250 -8.09993 29856 ft 455 kts
2026-05-06 18:54 32.75394 -8.09478 30171 ft 458 kts
2026-05-06 18:54 32.78559 -8.08959 30438 ft 460 kts
2026-05-06 18:54 32.81742 -8.08436 30681 ft 463 kts
2026-05-06 18:54 32.84944 -8.07912 30928 ft 466 kts
2026-05-06 18:55 32.88164 -8.07383 31169 ft 469 kts
2026-05-06 18:55 32.91404 -8.06802 31479 ft 473 kts
2026-05-06 18:55 32.94571 -8.05671 31803 ft 481 kts 19°
2026-05-06 18:55 32.97577 -8.03866 32065 ft 486 kts 25°
2026-05-06 18:56 33.00534 -8.01898 32296 ft 489 kts 26°
2026-05-06 18:56 33.03503 -7.99901 32527 ft 491 kts 26°
2026-05-06 18:56 33.06492 -7.97906 32746 ft 493 kts 25°
2026-05-06 18:56 33.09500 -7.95919 32993 ft 495 kts 25°
2026-05-06 18:57 33.12481 -7.93958 33252 ft 496 kts 25°
2026-05-06 18:57 33.15501 -7.91973 33515 ft 496 kts 25°
2026-05-06 18:57 33.18532 -7.89976 33786 ft 497 kts 25°
2026-05-06 18:57 33.21555 -7.87983 34019 ft 497 kts 25°
2026-05-06 18:58 33.24585 -7.85984 34235 ft 497 kts 25°
2026-05-06 18:58 33.27611 -7.83984 34457 ft 497 kts 25°
2026-05-06 18:58 33.30641 -7.81980 34677 ft 497 kts 25°
2026-05-06 18:58 33.33666 -7.79976 34880 ft 497 kts 25°
2026-05-06 18:59 33.36688 -7.77964 35094 ft 497 kts 25°
2026-05-06 18:59 33.39710 -7.75952 35287 ft 497 kts 25°
2026-05-06 18:59 33.42735 -7.73944 35449 ft 497 kts 25°
2026-05-06 18:59 33.45753 -7.71938 35690 ft 496 kts 25°
2026-05-06 19:00 33.48765 -7.69942 35905 ft 492 kts 25°
2026-05-06 19:00 33.54824 -7.66090 35926 ft 493 kts 23°
2026-05-06 19:01 33.60950 -7.62382 35913 ft 493 kts 23°
2026-05-06 19:01 33.67075 -7.58669 35903 ft 495 kts 22°
2026-05-06 19:02 33.73259 -7.54935 35938 ft 498 kts 23°
2026-05-06 19:02 33.79416 -7.51197 35938 ft 495 kts 23°
2026-05-06 19:03 33.85558 -7.47464 35938 ft 495 kts 23°
2026-05-06 19:03 33.91698 -7.43729 35938 ft 495 kts 23°
2026-05-06 19:04 33.97786 -7.39966 35935 ft 489 kts 23°
2026-05-06 19:04 34.03854 -7.36273 35946 ft 488 kts 22°
2026-05-06 19:05 34.09921 -7.32598 35938 ft 488 kts 23°
2026-05-06 19:05 34.15935 -7.28917 35933 ft 488 kts 23°
2026-05-06 19:06 34.21989 -7.25204 35938 ft 488 kts 23°
2026-05-06 19:06 34.28037 -7.21489 35956 ft 487 kts 23°
2026-05-06 19:07 34.34075 -7.17775 35940 ft 486 kts 23°
2026-05-06 19:07 34.40103 -7.14060 35934 ft 486 kts 23°
2026-05-06 19:08 34.46129 -7.10333 35939 ft 486 kts 23°
2026-05-06 19:08 34.52159 -7.06603 35937 ft 487 kts 23°
2026-05-06 19:09 34.58186 -7.02875 35940 ft 485 kts 23°
2026-05-06 19:09 34.64197 -6.99144 35928 ft 485 kts 23°
2026-05-06 19:10 34.70206 -6.95406 35930 ft 485 kts 23°
2026-05-06 19:10 34.76178 -6.91693 35925 ft 485 kts 23°
2026-05-06 19:11 34.82184 -6.87947 35948 ft 484 kts 23°
2026-05-06 19:11 34.88171 -6.84205 35907 ft 483 kts 23°
2026-05-06 19:12 34.94153 -6.80466 35916 ft 483 kts 23°
2026-05-06 19:12 35.00133 -6.76722 35917 ft 483 kts 23°
2026-05-06 19:13 35.06117 -6.72965 35928 ft 484 kts 23°
2026-05-06 19:13 35.12085 -6.69209 35922 ft 481 kts 23°
2026-05-06 19:14 35.18044 -6.65460 35910 ft 481 kts 23°
2026-05-06 19:14 35.23997 -6.61702 35909 ft 482 kts 23°
2026-05-06 19:15 35.29951 -6.57943 35908 ft 482 kts 23°
2026-05-06 19:15 35.35906 -6.54179 35915 ft 481 kts 24°
2026-05-06 19:16 35.41840 -6.50416 35900 ft 480 kts 24°
2026-05-06 19:16 35.47778 -6.46641 35899 ft 481 kts 24°
2026-05-06 19:17 35.53714 -6.42869 35895 ft 480 kts 24°
2026-05-06 19:17 35.59647 -6.39087 35925 ft 480 kts 24°
2026-05-06 19:18 35.65560 -6.35312 35898 ft 478 kts 24°
2026-05-06 19:18 35.71471 -6.31535 35893 ft 479 kts 24°
2026-05-06 19:19 35.77386 -6.27747 35894 ft 479 kts 24°
2026-05-06 19:19 35.83299 -6.23953 35900 ft 479 kts 24°
2026-05-06 19:20 35.89205 -6.20143 35894 ft 479 kts 24°
2026-05-06 19:20 35.95117 -6.16323 35904 ft 480 kts 24°
2026-05-06 19:21 36.00991 -6.12513 35902 ft 480 kts 24°
2026-05-06 19:21 36.06902 -6.08670 35893 ft 480 kts 24°
2026-05-06 19:22 36.12813 -6.04821 35917 ft 479 kts 24°
2026-05-06 19:22 36.18697 -6.00977 35902 ft 478 kts 24°
2026-05-06 19:23 36.24704 -5.97589 35901 ft 470 kts 11°
2026-05-06 19:23 36.31091 -5.96227 35903 ft 464 kts
2026-05-06 19:24 36.37496 -5.95165 35909 ft 464 kts
2026-05-06 19:24 36.42809 -5.94237 35901 ft 463 kts
2026-05-06 19:25 36.49141 -5.92306 35897 ft 473 kts 13°
2026-05-06 19:25 36.55399 -5.89765 35891 ft 473 kts 13°
2026-05-06 19:26 36.61663 -5.87255 35904 ft 473 kts 13°
2026-05-06 19:26 36.67912 -5.84769 35884 ft 471 kts 13°
2026-05-06 19:27 36.74134 -5.82283 35880 ft 465 kts 13°
2026-05-06 19:27 36.80298 -5.79819 35880 ft 465 kts 13°
2026-05-06 19:28 36.86461 -5.77353 35891 ft 465 kts 13°
2026-05-06 19:28 36.92618 -5.74882 35874 ft 465 kts 14°
2026-05-06 19:29 36.98773 -5.72406 35875 ft 464 kts 13°
2026-05-06 19:29 37.04927 -5.69929 35865 ft 464 kts 13°
2026-05-06 19:30 37.11078 -5.67450 35881 ft 464 kts 13°
2026-05-06 19:30 37.17215 -5.64974 35864 ft 463 kts 13°
2026-05-06 19:31 37.23352 -5.62490 35849 ft 463 kts 14°
2026-05-06 19:31 37.32547 -5.58758 35846 ft 463 kts 14°
2026-05-06 19:32 37.38678 -5.56268 35854 ft 463 kts 14°
2026-05-06 19:32 37.44802 -5.53780 35848 ft 463 kts 14°
2026-05-06 19:33 37.50929 -5.51289 35849 ft 463 kts 14°
2026-05-06 19:33 37.57053 -5.48786 35851 ft 463 kts 14°
2026-05-06 19:34 37.63136 -5.46294 35855 ft 463 kts 14°
2026-05-06 19:34 37.69258 -5.43789 35852 ft 463 kts 14°
2026-05-06 19:35 37.75386 -5.41279 35854 ft 463 kts 14°
2026-05-06 19:35 37.81509 -5.38768 35845 ft 463 kts 14°
2026-05-06 19:36 37.87628 -5.36244 35855 ft 462 kts 14°
2026-05-06 19:36 37.93743 -5.33728 35852 ft 462 kts 14°
2026-05-06 19:37 37.99852 -5.31206 35848 ft 462 kts 14°
2026-05-06 19:37 38.05966 -5.28680 35855 ft 462 kts 14°
2026-05-06 19:38 38.12068 -5.26150 35855 ft 461 kts 14°
2026-05-06 19:38 38.18163 -5.23619 35850 ft 461 kts 14°
2026-05-06 19:39 38.24256 -5.21087 35850 ft 461 kts 14°
2026-05-06 19:39 38.30348 -5.18547 35852 ft 461 kts 14°
2026-05-06 19:40 38.36454 -5.15998 35850 ft 462 kts 14°
2026-05-06 19:40 38.42563 -5.13447 35851 ft 462 kts 14°
2026-05-06 19:41 38.48670 -5.10887 35849 ft 462 kts 14°
2026-05-06 19:41 38.54708 -5.08013 35869 ft 464 kts 18°
2026-05-06 19:42 38.60662 -5.04958 35852 ft 464 kts 18°
2026-05-06 19:42 38.66659 -5.01882 35852 ft 464 kts 18°
2026-05-06 19:43 38.72657 -4.98804 35850 ft 464 kts 18°
2026-05-06 19:43 38.78653 -4.95722 35852 ft 464 kts 18°
2026-05-06 19:44 38.84633 -4.92643 35856 ft 462 kts 18°
2026-05-06 19:44 38.90594 -4.89572 35856 ft 462 kts 18°
2026-05-06 19:45 38.96545 -4.86386 35864 ft 465 kts 20°
2026-05-06 19:45 39.02481 -4.83073 35889 ft 465 kts 20°
2026-05-06 19:46 39.08418 -4.79766 35869 ft 465 kts 20°
2026-05-06 19:46 39.14351 -4.76454 35866 ft 465 kts 20°
2026-05-06 19:47 39.20277 -4.73135 35869 ft 462 kts 20°
2026-05-06 19:47 39.26130 -4.69852 35884 ft 458 kts 20°
2026-05-06 19:48 39.31977 -4.66570 35876 ft 458 kts 20°
2026-05-06 19:48 39.37821 -4.63278 35876 ft 458 kts 20°
2026-05-06 19:49 39.43664 -4.59982 35879 ft 458 kts 20°
2026-05-06 19:49 39.49505 -4.56685 35898 ft 458 kts 20°
2026-05-06 19:50 39.55336 -4.53386 35887 ft 457 kts 20°
2026-05-06 19:50 39.61163 -4.50082 35887 ft 457 kts 20°
2026-05-06 19:51 39.66953 -4.46790 35885 ft 457 kts 20°
2026-05-06 19:51 39.72781 -4.43469 35898 ft 457 kts 20°
2026-05-06 19:52 39.78649 -4.40114 35892 ft 458 kts 20°
2026-05-06 19:52 39.84481 -4.36780 35891 ft 458 kts 20°
2026-05-06 19:53 39.90281 -4.33475 35887 ft 458 kts 20°
2026-05-06 19:53 39.96118 -4.30136 35909 ft 458 kts 20°
2026-05-06 19:54 40.01957 -4.26783 35893 ft 459 kts 20°
2026-05-06 19:54 40.07835 -4.23403 35890 ft 458 kts 20°
2026-05-06 19:55 40.13674 -4.20034 35899 ft 459 kts 20°
2026-05-06 19:55 40.19473 -4.16679 35901 ft 459 kts 20°
2026-05-06 19:56 40.25359 -4.13274 35911 ft 459 kts 20°
2026-05-06 19:56 40.31163 -4.09910 35912 ft 459 kts 20°
2026-05-06 19:57 40.37008 -4.06517 35905 ft 460 kts 20°
2026-05-06 19:57 40.42855 -4.03112 35931 ft 460 kts 20°
2026-05-06 19:58 40.48705 -3.99703 35936 ft 460 kts 21°
2026-05-06 19:58 40.54561 -3.96283 35936 ft 460 kts 21°
2026-05-06 19:59 40.60404 -3.92856 35942 ft 460 kts 21°
2026-05-06 19:59 40.66247 -3.89430 35939 ft 460 kts 21°
2026-05-06 20:00 40.72093 -3.85997 35948 ft 460 kts 21°
2026-05-06 20:00 40.77933 -3.82557 35956 ft 459 kts 21°
2026-05-06 20:01 40.83767 -3.79116 35954 ft 459 kts 21°
2026-05-06 20:01 40.89605 -3.75666 35957 ft 460 kts 21°
2026-05-06 20:02 40.95666 -3.73117 35966 ft 456 kts
2026-05-06 20:02 41.01960 -3.72083 35961 ft 456 kts
2026-05-06 20:03 41.08254 -3.71019 35974 ft 456 kts
2026-05-06 20:03 41.14545 -3.69903 35962 ft 456 kts
2026-05-06 20:04 41.20843 -3.68774 35957 ft 456 kts
2026-05-06 20:04 41.27081 -3.67637 35952 ft 451 kts
2026-05-06 20:05 41.33298 -3.66514 35955 ft 451 kts
2026-05-06 20:05 41.39475 -3.65406 35951 ft 451 kts
2026-05-06 20:06 41.45689 -3.64289 35953 ft 451 kts
2026-05-06 20:06 41.51906 -3.63160 35965 ft 451 kts
2026-05-06 20:07 41.58119 -3.62014 35955 ft 450 kts
2026-05-06 20:07 41.64332 -3.60879 35949 ft 451 kts
2026-05-06 20:08 41.70542 -3.59735 35952 ft 451 kts
2026-05-06 20:08 41.76760 -3.58600 35950 ft 451 kts
2026-05-06 20:09 41.82969 -3.57464 35954 ft 450 kts
2026-05-06 20:09 41.89178 -3.56323 35961 ft 450 kts
2026-05-06 20:10 41.95380 -3.55181 35978 ft 450 kts
2026-05-06 20:10 42.01572 -3.54032 35978 ft 449 kts
2026-05-06 20:11 42.07759 -3.52879 35973 ft 449 kts
2026-05-06 20:11 42.13947 -3.51724 35974 ft 449 kts
2026-05-06 20:12 42.19091 -3.50770 35993 ft 449 kts
2026-05-06 20:12 42.25277 -3.49614 35997 ft 449 kts
2026-05-06 20:13 42.31458 -3.48465 35994 ft 449 kts
2026-05-06 20:13 42.37642 -3.47306 36006 ft 448 kts
2026-05-06 20:14 42.43824 -3.46148 35998 ft 448 kts
2026-05-06 20:14 42.50002 -3.44992 36003 ft 448 kts
2026-05-06 20:15 42.56181 -3.43827 36010 ft 448 kts
2026-05-06 20:15 42.62356 -3.42661 36016 ft 447 kts
2026-05-06 20:16 42.68525 -3.41486 36025 ft 448 kts
2026-05-06 20:16 42.74659 -3.40320 36029 ft 448 kts
2026-05-06 20:17 42.80835 -3.39148 36027 ft 448 kts
2026-05-06 20:17 42.87007 -3.37976 36037 ft 448 kts
2026-05-06 20:18 42.93183 -3.36799 36035 ft 448 kts
2026-05-06 20:18 42.99365 -3.35630 36042 ft 448 kts
2026-05-06 20:19 43.05519 -3.34460 36036 ft 446 kts
2026-05-06 20:19 43.11663 -3.33286 36036 ft 446 kts
2026-05-06 20:20 43.17818 -3.32107 36030 ft 446 kts
2026-05-06 20:20 43.23962 -3.30922 36033 ft 446 kts
2026-05-06 20:21 43.30105 -3.29739 36030 ft 446 kts
2026-05-06 20:21 43.36248 -3.28552 36032 ft 446 kts
2026-05-06 20:22 43.42397 -3.27359 36027 ft 446 kts
2026-05-06 20:22 43.48536 -3.26169 36031 ft 446 kts
2026-05-06 20:23 43.54681 -3.24978 36024 ft 446 kts
2026-05-06 20:23 43.60822 -3.23786 36037 ft 445 kts
2026-05-06 20:24 43.66958 -3.22587 36030 ft 446 kts
2026-05-06 20:24 43.73100 -3.21388 36028 ft 446 kts
2026-05-06 20:25 43.79200 -3.20190 36029 ft 446 kts
2026-05-06 20:25 43.85333 -3.18983 36028 ft 445 kts
2026-05-06 20:26 43.91466 -3.17772 36025 ft 445 kts
2026-05-06 20:26 43.97607 -3.16559 36024 ft 446 kts
2026-05-06 20:27 44.03741 -3.15336 36030 ft 445 kts
2026-05-06 20:27 44.09754 -3.13210 36028 ft 447 kts 11°
2026-05-06 20:28 44.15844 -3.11482 36021 ft 446 kts
2026-05-06 20:28 44.21969 -3.10095 36030 ft 446 kts
2026-05-06 20:29 44.28080 -3.08689 36025 ft 445 kts
2026-05-06 20:29 44.34191 -3.07275 36027 ft 445 kts
2026-05-06 20:30 44.43360 -3.05142 36023 ft 444 kts
2026-05-06 20:31 44.49387 -3.03733 36022 ft 438 kts
2026-05-06 20:31 44.55392 -3.02331 36025 ft 438 kts
2026-05-06 20:32 44.61398 -3.00934 36023 ft 437 kts
2026-05-06 20:32 44.67395 -2.99529 36023 ft 437 kts
2026-05-06 20:33 44.73352 -2.98127 36027 ft 437 kts
2026-05-06 20:33 44.79345 -2.96714 36026 ft 437 kts
2026-05-06 20:34 44.85344 -2.95299 36024 ft 437 kts
2026-05-06 20:34 44.91346 -2.93876 36023 ft 437 kts
2026-05-06 20:35 44.97349 -2.92447 36024 ft 437 kts
2026-05-06 20:35 45.03352 -2.91017 36020 ft 437 kts
2026-05-06 20:36 45.09350 -2.89587 36015 ft 437 kts
2026-05-06 20:36 45.15354 -2.88152 36022 ft 437 kts
2026-05-06 20:37 45.21355 -2.86715 36026 ft 437 kts
2026-05-06 20:37 45.27359 -2.85273 36018 ft 438 kts
2026-05-06 20:38 45.33364 -2.83832 36020 ft 438 kts
2026-05-06 20:38 45.39375 -2.82387 36019 ft 438 kts
2026-05-06 20:39 45.45392 -2.80933 36019 ft 438 kts
2026-05-06 20:39 45.51407 -2.79478 36013 ft 439 kts
2026-05-06 20:40 45.57420 -2.78022 36017 ft 439 kts
2026-05-06 20:40 45.63445 -2.76559 36013 ft 439 kts
2026-05-06 20:41 45.69422 -2.75103 36012 ft 439 kts
2026-05-06 20:41 45.75441 -2.73639 36016 ft 437 kts
2026-05-06 20:42 45.81431 -2.72170 36012 ft 436 kts
2026-05-06 20:42 45.87413 -2.70706 36013 ft 436 kts
2026-05-06 20:43 45.93399 -2.69234 36012 ft 436 kts
2026-05-06 20:43 45.99385 -2.67761 36010 ft 436 kts
2026-05-06 20:44 46.05370 -2.66287 36012 ft 436 kts
2026-05-06 20:44 46.11356 -2.64809 36009 ft 436 kts
2026-05-06 20:45 46.17341 -2.63323 36010 ft 437 kts
2026-05-06 20:45 46.23340 -2.61836 36000 ft 437 kts
2026-05-06 20:46 46.29338 -2.60344 36009 ft 437 kts
2026-05-06 20:46 46.35340 -2.58848 36009 ft 438 kts
2026-05-06 20:47 46.41339 -2.57347 35994 ft 438 kts
2026-05-06 20:47 46.47338 -2.55842 36004 ft 437 kts
2026-05-06 20:48 46.53318 -2.54342 36002 ft 435 kts
2026-05-06 20:48 46.59287 -2.52842 35999 ft 435 kts
2026-05-06 20:49 46.65254 -2.51337 36002 ft 435 kts
2026-05-06 20:49 46.71179 -2.49842 36002 ft 435 kts
2026-05-06 20:50 46.77150 -2.48329 35992 ft 435 kts
2026-05-06 20:50 46.83119 -2.46813 35997 ft 435 kts
2026-05-06 20:51 46.89089 -2.45294 36001 ft 436 kts
2026-05-06 20:51 46.95058 -2.43774 35999 ft 435 kts
2026-05-06 20:52 47.01025 -2.42252 35996 ft 435 kts
2026-05-06 20:52 47.06986 -2.40721 35996 ft 435 kts
2026-05-06 20:53 47.12952 -2.39189 35997 ft 435 kts
2026-05-06 20:53 47.18921 -2.37649 35995 ft 436 kts
2026-05-06 20:54 47.24891 -2.36112 35995 ft 435 kts
2026-05-06 20:54 47.30860 -2.34570 35994 ft 435 kts
2026-05-06 20:55 47.36829 -2.33023 36000 ft 436 kts
2026-05-06 20:55 47.42803 -2.31469 35994 ft 436 kts
2026-05-06 20:56 47.48770 -2.29919 35994 ft 436 kts
2026-05-06 20:56 47.54740 -2.28362 35992 ft 436 kts
2026-05-06 20:57 47.60709 -2.26799 35994 ft 436 kts
2026-05-06 20:57 47.66664 -2.25240 35992 ft 434 kts
2026-05-06 20:58 47.72611 -2.23679 35991 ft 434 kts
2026-05-06 20:58 47.78554 -2.22114 35998 ft 434 kts
2026-05-06 20:59 47.84499 -2.20540 35992 ft 434 kts
2026-05-06 20:59 47.90445 -2.18967 35992 ft 434 kts
2026-05-06 21:00 47.96394 -2.17391 35992 ft 434 kts
2026-05-06 21:00 48.02350 -2.15805 35996 ft 435 kts
2026-05-06 21:01 48.07300 -2.14489 35994 ft 435 kts
2026-05-06 21:01 48.13261 -2.12899 35995 ft 435 kts
2026-05-06 21:02 48.19223 -2.11301 35993 ft 435 kts
2026-05-06 21:02 48.25182 -2.09709 35996 ft 436 kts
2026-05-06 21:03 48.31149 -2.08105 35997 ft 436 kts
2026-05-06 21:03 48.37117 -2.06495 35993 ft 436 kts
2026-05-06 21:04 48.43084 -2.04878 36000 ft 436 kts
2026-05-06 21:04 48.49054 -2.03264 35995 ft 436 kts
2026-05-06 21:05 48.55035 -2.01638 36025 ft 437 kts
2026-05-06 21:05 48.61012 -2.00017 36024 ft 437 kts
2026-05-06 21:06 48.66993 -1.98385 36023 ft 437 kts
2026-05-06 21:06 48.72972 -1.96749 36021 ft 437 kts
2026-05-06 21:07 48.78959 -1.95108 36020 ft 437 kts
2026-05-06 21:07 48.84939 -1.93467 36014 ft 437 kts
2026-05-06 21:08 48.90921 -1.91818 36014 ft 437 kts
2026-05-06 21:08 48.96905 -1.90167 36009 ft 437 kts
2026-05-06 21:09 49.02863 -1.88517 36011 ft 434 kts
2026-05-06 21:09 49.08777 -1.86874 36011 ft 435 kts
2026-05-06 21:10 49.14731 -1.85221 36016 ft 435 kts
2026-05-06 21:10 49.20694 -1.83558 36002 ft 435 kts
2026-05-06 21:11 49.26654 -1.81894 36009 ft 435 kts
2026-05-06 21:11 49.32617 -1.80224 36014 ft 436 kts
2026-05-06 21:12 49.38593 -1.78544 36018 ft 437 kts
2026-05-06 21:12 49.44589 -1.76853 36017 ft 438 kts
2026-05-06 21:13 49.50584 -1.75162 36022 ft 438 kts
2026-05-06 21:13 49.56586 -1.73468 36023 ft 439 kts
2026-05-06 21:14 49.62490 -1.71089 36025 ft 440 kts 18°
2026-05-06 21:14 49.68233 -1.67839 36017 ft 436 kts 20°
2026-05-06 21:15 49.73833 -1.64315 36037 ft 438 kts 21°
2026-05-06 21:15 49.79515 -1.60715 36022 ft 442 kts 20°
2026-05-06 21:15 49.82360 -1.58911 35892 ft 442 kts 20°
2026-05-06 21:16 49.85203 -1.57104 35674 ft 441 kts 20°
2026-05-06 21:16 49.88042 -1.55301 35433 ft 441 kts 20°
2026-05-06 21:16 49.90881 -1.53497 35188 ft 441 kts 20°
2026-05-06 21:16 49.93710 -1.51695 34882 ft 437 kts 20°
2026-05-06 21:17 49.96530 -1.49897 34147 ft 439 kts 20°
2026-05-06 21:17 49.99365 -1.48087 33235 ft 442 kts 20°
2026-05-06 21:17 50.02223 -1.46262 32354 ft 444 kts 20°
2026-05-06 21:17 50.05086 -1.44428 31521 ft 445 kts 20°
2026-05-06 21:18 50.07953 -1.42587 30691 ft 447 kts 21°
2026-05-06 21:18 50.10828 -1.40733 29795 ft 448 kts 21°
2026-05-06 21:18 50.13715 -1.38879 28770 ft 450 kts 21°
2026-05-06 21:18 50.16616 -1.37015 27807 ft 451 kts 21°
2026-05-06 21:19 50.19498 -1.35159 27119 ft 446 kts 21°
2026-05-06 21:19 50.22362 -1.33310 26186 ft 446 kts 21°
2026-05-06 21:19 50.25230 -1.31458 25317 ft 446 kts 21°
2026-05-06 21:19 50.28085 -1.29612 24575 ft 442 kts 21°
2026-05-06 21:20 50.30912 -1.27777 23886 ft 438 kts 21°
2026-05-06 21:20 50.33713 -1.25958 23129 ft 434 kts 21°
2026-05-06 21:20 50.36486 -1.24162 22363 ft 429 kts 21°
2026-05-06 21:20 50.39225 -1.22375 21625 ft 424 kts 21°
2026-05-06 21:21 50.41792 -1.20139 20890 ft 421 kts 33°
2026-05-06 21:21 50.44175 -1.17457 19933 ft 423 kts 35°
2026-05-06 21:21 50.46514 -1.14752 19115 ft 422 kts 35°
2026-05-06 21:21 50.48881 -1.12044 18390 ft 419 kts 34°
2026-05-06 21:22 50.51230 -1.09382 17620 ft 414 kts 34°
2026-05-06 21:22 50.53556 -1.06757 16871 ft 409 kts 34°
2026-05-06 21:22 50.55855 -1.04164 16152 ft 404 kts 34°
2026-05-06 21:22 50.58171 -1.01709 15437 ft 399 kts 28°
2026-05-06 21:23 50.60608 -0.99687 14765 ft 394 kts 26°
2026-05-06 21:23 50.63046 -0.97739 13906 ft 394 kts 25°
2026-05-06 21:23 50.65483 -0.95770 13028 ft 393 kts 26°
2026-05-06 21:23 50.67898 -0.93796 12248 ft 389 kts 26°
2026-05-06 21:24 50.70284 -0.91828 11515 ft 385 kts 26°
2026-05-06 21:24 50.72639 -0.89878 10788 ft 380 kts 26°
2026-05-06 21:24 50.74972 -0.87946 10086 ft 377 kts 26°
2026-05-06 21:24 50.77277 -0.86026 9401 ft 372 kts 27°
2026-05-06 21:25 50.79525 -0.84150 9045 ft 358 kts 27°
2026-05-06 21:25 50.81681 -0.82348 8800 ft 343 kts 27°
2026-05-06 21:25 50.83746 -0.80618 8610 ft 329 kts 26°
2026-05-06 21:25 50.85726 -0.78954 8430 ft 316 kts 27°
2026-05-06 21:26 50.87625 -0.77356 8279 ft 303 kts 27°
2026-05-06 21:26 50.89446 -0.75824 8141 ft 290 kts 27°
2026-05-06 21:26 50.91196 -0.74351 7984 ft 280 kts 27°
2026-05-06 21:26 50.92898 -0.72919 7683 ft 275 kts 27°
2026-05-06 21:27 50.94578 -0.71504 7316 ft 273 kts 27°
2026-05-06 21:27 50.96248 -0.70100 6882 ft 271 kts 27°
2026-05-06 21:27 50.97904 -0.68710 6459 ft 268 kts 27°
2026-05-06 21:27 50.99550 -0.67330 5995 ft 267 kts 27°
2026-05-06 21:28 51.01186 -0.65961 5543 ft 265 kts 27°
2026-05-06 21:28 51.02690 -0.64300 5083 ft 264 kts 42°
2026-05-06 21:28 51.03968 -0.62254 4795 ft 257 kts 45°
2026-05-06 21:28 51.05174 -0.60228 4651 ft 247 kts 46°
2026-05-06 21:29 51.06324 -0.58283 4511 ft 236 kts 46°
2026-05-06 21:29 51.07417 -0.56429 4379 ft 223 kts 46°
2026-05-06 21:29 51.08451 -0.54678 4241 ft 211 kts 46°
2026-05-06 21:29 51.09416 -0.53039 4158 ft 193 kts 46°
2026-05-06 21:30 51.10182 -0.51358 4057 ft 188 kts 64°
2026-05-06 21:30 51.10592 -0.49387 3894 ft 187 kts 74°
2026-05-06 21:30 51.10865 -0.47365 3668 ft 186 kts 76°
2026-05-06 21:30 51.11141 -0.45386 3429 ft 185 kts 76°
2026-05-06 21:31 51.11422 -0.43368 3176 ft 184 kts 76°
2026-05-06 21:31 51.11699 -0.41384 2924 ft 183 kts 76°
2026-05-06 21:31 51.11970 -0.39444 2677 ft 181 kts 76°
2026-05-06 21:31 51.12242 -0.37496 2431 ft 179 kts 76°
2026-05-06 21:32 51.12508 -0.35585 2180 ft 174 kts 75°
2026-05-06 21:32 51.13002 -0.32040 1743 ft 157 kts 75°
2026-05-06 21:32 51.13230 -0.30405 1520 ft 144 kts 75°
2026-05-06 21:33 51.13444 -0.28867 1320 ft 142 kts 75°
2026-05-06 21:33 51.13658 -0.27338 1120 ft 142 kts 75°
2026-05-06 21:33 51.13874 -0.25804 921 ft 142 kts 76°
2026-05-06 21:33 51.14088 -0.24274 724 ft 142 kts 76°
2026-05-06 21:34 51.14298 -0.22748 531 ft 140 kts 78°
2026-05-06 21:34 51.14509 -0.21233 349 ft 140 kts 77°
2026-05-06 21:34 51.14718 -0.19739 218 ft 132 kts 78°
2026-05-06 21:34 51.14881 -0.18549 212 ft 82 kts 79°
2026-05-06 21:35 51.14959 -0.18045 216 ft 33 kts 68°
2026-05-06 21:35 51.15039 -0.17834 221 ft 16 kts 52°
2026-05-06 21:35 51.15092 -0.17759 212 ft 11 kts 12°
2026-05-06 21:35 51.15170 -0.17775 213 ft 9 kts 352°
2026-05-06 21:36 51.15181 -0.17777 211 ft 0 kts 354°
2026-05-06 21:36 51.15186 -0.17778 211 ft 2 kts 354°
2026-05-06 21:36 51.15217 -0.17784 212 ft 7 kts 348°
2026-05-06 21:37 51.15246 -0.17859 213 ft 11 kts 265°
2026-05-06 21:37 51.15229 -0.17988 218 ft 13 kts 256°
2026-05-06 21:37 51.15259 -0.18108 210 ft 15 kts 348°
2026-05-06 21:37 51.15364 -0.18138 218 ft 13 kts 349°
2026-05-06 21:38 51.15459 -0.18173 212 ft 15 kts 342°
2026-05-06 21:38 51.15562 -0.18220 210 ft 15 kts 348°
2026-05-06 21:38 51.15641 -0.18233 214 ft 10 kts 19°
2026-05-06 21:38 51.15705 -0.18178 215 ft 11 kts 11°
2026-05-06 21:39 51.15786 -0.18196 213 ft 12 kts 345°
2026-05-06 21:39 51.15875 -0.18226 210 ft 14 kts 348°
2026-05-06 21:39 51.15964 -0.18256 218 ft 11 kts 348°
2026-05-06 21:39 51.16025 -0.18238 218 ft 8 kts 52°
2026-05-06 21:40 51.16046 -0.18162 215 ft 8 kts 75°
2026-05-06 21:40 51.16056 -0.18096 217 ft 4 kts 78°
2026-05-06 21:40 51.16059 -0.18070 214 ft 1 kts 79°
2026-05-06 21:40 51.16060 -0.18064 213 ft 1 kts 79°
2026-05-06 21:41 51.16063 -0.18044 217 ft 2 kts 76°
2026-05-06 21:41 51.16064 -0.18036 218 ft 0 kts 77°